[[{"header":{"parameterUnit":"m.s-1","parameterCategory":1,"la1":30.2991,"la2":30.254,"lo1":-89.0895,"lo2":-89.0444,"dy":0.0017,"dx":0.0017,"nx":28,"ny":28,"refTime":"2025-04-12T03:00:00:Z","depth":0,"parameterNumber":2,"parameterNumberName":"U-component_of_WINDS"},"data":[0,0,0,0,0,0,0,0,0,0,0,0,0,0,0,0,0,0,0,0,0,0,0,0,0,0,0,0,0,0,0,0,0,0,0,0,0,0,0,0,0,0,0,0,0,0,0,0,0,0,0,0,0,0,0,0,0,0,-3.1147,-3.1148,0,-3.1191,-3.1191,-3.1192,-3.11,-3.1097,-3.1094,-3.1091,-3.1136,-3.1139,-3.1143,0,0,0,0,0,0,0,0,0,0,0,0,0,-3.0983,-3.0987,-3.1147,-3.1148,-3.1148,-3.1191,-3.1191,-3.1192,-3.11,-3.1097,-3.1093,-3.109,-3.1134,-3.1139,-3.1144,0,0,0,0,0,0,0,0,0,0,0,0,0,-3.1043,-3.0988,-3.1147,-3.1108,-3.1105,-3.1191,-3.1191,-3.1192,-3.1101,-3.1097,-3.1092,-3.1088,-3.1133,-3.1138,-3.1144,-3.1271,0,0,-3.1162,-3.1165,0,0,0,0,0,0,0,0,-3.104,-3.105,-3.1113,-3.111,-3.1107,-3.1135,-3.115,-3.1218,-3.1102,-3.1102,-3.1091,-3.1086,-3.1139,-3.1144,-3.1162,-3.1273,-3.1275,-3.1163,-3.1167,-3.1169,-3.1171,0,0,0,0,0,0,0,-3.1036,-3.1047,-3.1164,-3.1114,-3.111,-3.1087,-3.1091,-3.1162,-3.1145,-3.1102,-3.1095,-3.1102,-3.1137,-3.1157,-3.1163,-3.1275,-3.1163,-3.1168,-3.1172,-3.1174,-3.1489,-3.1494,0,0,0,0,0,0,-3.1037,-3.1044,-3.1163,-3.1166,-3.1062,-3.1094,-3.1098,-3.1131,-3.1144,-3.1142,-3.1106,-3.1097,-3.1149,-3.1156,-3.1164,-3.1311,-3.1169,-3.1175,-3.1178,-3.1484,-3.149,-3.1495,0,0,0,0,0,0,-3.1034,-3.1048,-3.1161,-3.1103,-3.1116,-3.1101,-3.1139,-3.1134,-3.1154,-3.1147,-3.1143,-3.1129,-3.1145,-3.1155,-3.1244,-3.1311,-3.1177,-3.1183,-3.1479,-3.1486,-3.1493,-3.1607,0,0,0,0,0,0,-3.103,-3.1048,-3.1096,-3.1105,-3.1119,-3.1242,-3.1143,-3.1138,-3.1164,-3.1154,-3.1168,-3.1166,-3.1143,-3.1236,-3.125,-3.1317,-3.1187,-3.1473,-3.1482,-3.149,-3.1597,-3.1617,-3.1634,0,0,0,0,0,-3.1024,-3.1127,-3.1099,-3.1114,-3.1179,-3.1246,-3.1254,-3.1225,-3.117,-3.1218,-3.1213,-3.1166,-3.1302,-3.1246,-3.1261,-3.133,-3.1468,-3.1479,-3.149,-3.1589,-3.1613,-3.1634,0,0,0,0,0,0,-3.1126,-3.1127,-3.1096,-3.1205,-3.1226,-3.123,-3.129,-3.1252,-3.1288,-3.1277,-3.1239,-3.1243,-3.1339,-3.1344,-3.1281,-3.1452,-3.1376,-3.139,-3.1445,-3.1469,-3.1487,-3.1483,-3.1192,0,0,0,0,0,-3.1162,-3.1216,-3.1214,-3.131,-3.1322,-3.1304,-3.1332,-3.1308,-3.1328,-3.1336,-3.1338,-3.1359,-3.1406,-3.1438,-3.1481,-3.1598,-3.1598,-3.1653,-3.1671,-3.1687,-3.1699,-3.1759,-3.1783,-3.1531,-3.1531,-3.1531,0,0,-3.1235,-3.1242,-3.1279,-3.1331,-3.1344,-3.14,-3.1312,-3.1376,-3.1417,-3.1346,-3.1429,-3.1431,-3.1452,-3.1555,-3.16,-3.1562,-3.1769,-3.17,-3.1713,-3.1717,-3.1773,-3.1796,-3.1818,-3.1538,-3.1537,-3.1536,0,0,-3.1397,-3.1409,-3.1489,-3.1504,-3.1525,-3.1512,-3.1532,-3.1542,-3.154,-3.1623,-3.157,-3.1619,-3.1701,-3.1717,-3.1737,-3.1904,-3.1861,-3.1919,-3.2016,-3.2075,-3.2094,-3.2112,-3.2169,-3.2191,-3.1932,-3.1932,-3.1932,0,-3.1485,-3.1568,-3.1535,-3.1602,-3.1626,-3.1564,-3.1644,-3.166,-3.1695,-3.1712,-3.1669,-3.1769,-3.1779,-3.1884,-3.1925,-3.1943,-3.1963,-3.1917,-3.2094,-3.2111,-3.2127,-3.2182,-3.2204,-3.1939,-3.1938,-3.1937,-3.1937,0,-3.1675,-3.1733,-3.1795,-3.1829,-3.186,-3.1934,-3.1911,-3.1947,-3.192,-3.1912,-3.1996,-3.2006,-3.2049,-3.2072,-3.2047,-3.2173,-3.2148,-3.2101,-3.2022,-3.2158,-3.2209,-3.223,-3.1949,-3.1946,-3.1944,-3.1943,0,0,-3.1902,-3.1916,-3.194,-3.1953,-3.1972,-3.2016,-3.2086,-3.2128,-3.2158,-3.2184,-3.2241,-3.2311,-3.2267,-3.2289,-3.2264,-3.2317,-3.2446,-3.2262,-3.2261,-3.2294,-3.2583,-3.2618,-3.2643,-3.2418,-3.2422,-3.2425,-3.2581,0,-3.2061,-3.2181,-3.2153,-3.2272,-3.2324,-3.2266,-3.2327,-3.2344,-3.2339,-3.2382,-3.2375,-3.2425,-3.2364,-3.2376,-3.2425,-3.242,-3.2503,-3.2409,-3.2469,-3.2472,-3.2464,-3.267,-3.2707,-3.2853,-3.2601,-3.2604,-3.2607,0,-3.2262,-3.2294,-3.2418,-3.2426,-3.2447,-3.2503,-3.2538,-3.2581,-3.2599,-3.2591,-3.2615,-3.258,-3.2649,-3.2571,-3.2664,-3.26,-3.2624,-3.2625,-3.263,-3.2633,-3.2546,-3.2676,-3.2899,-3.2921,-3.2638,-3.2635,-3.2633,0,-3.2412,-3.2488,-3.2571,-3.2585,-3.2597,-3.2637,-3.2644,-3.2658,-3.2684,-3.2715,-3.2732,-3.2771,-3.2792,-3.2822,-3.2798,-3.2745,-3.2895,-3.2816,-3.2889,-3.2889,-3.2921,-3.2919,-3.315,-3.294,-3.294,-3.294,-3.2939,0,-3.2591,-3.2669,-3.2638,-3.2689,-3.2774,-3.2741,-3.2826,-3.2826,-3.2839,-3.2888,-3.2841,-3.2888,-3.2855,-3.2899,-3.2881,-3.296,-3.297,-3.2965,-3.2958,-3.2968,-3.2968,-3.2981,-3.2969,-3.2945,-3.2944,-3.2943,-3.2942,0,-3.2773,-3.2756,-3.2843,-3.2847,-3.285,-3.2912,-3.2915,-3.2962,-3.2953,-3.3016,-3.3029,-3.3014,-3.3064,-3.3044,-3.3096,-3.3084,-3.3184,-3.3166,-3.3178,-3.3172,-3.3245,-3.3238,-3.349,-3.3521,-3.3294,-3.3296,-3.3298,0,-3.2888,-3.2946,-3.2956,-3.2986,-3.2996,-3.3045,-3.3071,-3.3041,-3.3071,-3.3095,-3.3139,-3.3184,-3.3219,-3.33,-3.3294,-3.3334,-3.3314,-3.34,-3.332,-3.3327,-3.3313,-3.3309,-3.3314,-3.3416,-3.3418,-3.342,-3.3422,0,-3.3092,-3.308,-3.312,-3.3158,-3.319,-3.3218,-3.3242,-3.3269,-3.324,-3.3275,-3.3325,-3.3352,-3.3405,-3.345,-3.3485,-3.3491,-3.3452,-3.3448,-3.3466,-3.3475,-3.3479,-3.3475,-3.3219,-3.3442,-3.344,-3.3438,-3.3437,-3.3436,-3.3242,-3.329,-3.3304,-3.335,-3.3365,-3.3388,-3.3432,-3.3428,-3.3469,-3.3509,-3.3489,-3.3547,-3.3562,-3.3605,-3.3617,-3.366,-3.3627,-3.3654,-3.3661,-3.3667,-3.3676,-3.3474,-3.3667,-3.3666,-3.3666,-3.3665,-3.3665,0,-3.3441,-3.3448,-3.349,-3.3524,-3.356,-3.3521,-3.3544,-3.3577,-3.3628,-3.3646,-3.368,-3.3737,-3.378,-3.3777,-3.3817,-3.3852,-3.3835,-3.3864,-3.3859,-3.3861,-3.3705,-3.3684,-3.3877,-3.3877,-3.3877,-3.3877,-3.3877,-3.3877,-3.3549,-3.3628,-3.3618,-3.3703,-3.3708,-3.3764,-3.3781,-3.3801,-3.3815,-3.388,-3.3916,-3.3914,-3.3923,-3.3962,-3.4,-3.3998,-3.4014,-3.4049,-3.404,-3.3893,-3.3872,-3.3852,-3.3832,-3.4053,-3.4053,-3.4192,-3.4193,-3.4194]},{"header":{"parameterUnit":"m.s-1","parameterCategory":1,"la1":30.2991,"la2":30.254,"lo1":-89.0895,"lo2":-89.0444,"dy":0.0017,"dx":0.0017,"nx":28,"ny":28,"refTime":"2025-04-12T03:00:00:Z","depth":0,"parameterNumber":3,"parameterNumberName":"V-component_of_WINDS"},"data":[0,0,0,0,0,0,0,0,0,0,0,0,0,0,0,0,0,0,0,0,0,0,0,0,0,0,0,0,0,0,0,0,0,0,0,0,0,0,0,0,0,0,0,0,0,0,0,0,0,0,0,0,0,0,0,0,0,0,-1.255,-1.2551,0,-1.2598,-1.2599,-1.2599,-1.2602,-1.2602,-1.2601,-1.2601,-1.2647,-1.2649,-1.265,0,0,0,0,0,0,0,0,0,0,0,0,0,-1.2458,-1.2459,-1.255,-1.2551,-1.2551,-1.2598,-1.2599,-1.2599,-1.2603,-1.2602,-1.2601,-1.2601,-1.2646,-1.2648,-1.2651,0,0,0,0,0,0,0,0,0,0,0,0,0,-1.2501,-1.246,-1.255,-1.2559,-1.256,-1.2598,-1.2599,-1.2599,-1.2603,-1.2602,-1.2601,-1.26,-1.2646,-1.2648,-1.2651,-1.2683,0,0,-1.2659,-1.266,0,0,0,0,0,0,0,0,-1.2498,-1.2504,-1.2557,-1.2558,-1.256,-1.2594,-1.2583,-1.2627,-1.2603,-1.2586,-1.2601,-1.26,-1.263,-1.2633,-1.2644,-1.2685,-1.2687,-1.2659,-1.266,-1.2662,-1.2662,0,0,0,0,0,0,0,-1.2495,-1.2502,-1.2569,-1.2557,-1.2559,-1.2559,-1.2564,-1.2591,-1.2612,-1.2588,-1.2588,-1.2594,-1.263,-1.2642,-1.2645,-1.2687,-1.2659,-1.2661,-1.2663,-1.2664,-1.2755,-1.2756,0,0,0,0,0,0,-1.2491,-1.25,-1.2567,-1.257,-1.2527,-1.2561,-1.2567,-1.2583,-1.2611,-1.2615,-1.2595,-1.2594,-1.2638,-1.2642,-1.2647,-1.2686,-1.2662,-1.2664,-1.2665,-1.2754,-1.2756,-1.2757,0,0,0,0,0,0,-1.2489,-1.2497,-1.2565,-1.2535,-1.2544,-1.2564,-1.2582,-1.2585,-1.2596,-1.2617,-1.262,-1.2603,-1.2637,-1.2643,-1.2674,-1.2687,-1.2665,-1.2667,-1.2753,-1.2755,-1.2756,-1.2763,0,0,0,0,0,0,-1.2487,-1.2497,-1.251,-1.2536,-1.2546,-1.2593,-1.2583,-1.2586,-1.2601,-1.2601,-1.2625,-1.2628,-1.2637,-1.267,-1.2676,-1.269,-1.267,-1.2752,-1.2754,-1.2756,-1.2762,-1.2765,-1.2767,0,0,0,0,0,-1.2483,-1.2509,-1.251,-1.2519,-1.2563,-1.2593,-1.2599,-1.2609,-1.2602,-1.2615,-1.2628,-1.2628,-1.2685,-1.2673,-1.268,-1.2695,-1.2752,-1.2754,-1.2756,-1.2761,-1.2764,-1.2767,0,0,0,0,0,0,-1.2484,-1.2513,-1.2514,-1.255,-1.2569,-1.2594,-1.261,-1.2613,-1.2634,-1.2632,-1.2643,-1.2649,-1.2679,-1.269,-1.2676,-1.2727,-1.2717,-1.2721,-1.2719,-1.2722,-1.2724,-1.2721,-1.2672,0,0,0,0,0,-1.2488,-1.2512,-1.2535,-1.2564,-1.2574,-1.259,-1.2604,-1.2611,-1.2631,-1.2639,-1.2654,-1.2673,-1.2695,-1.2709,-1.273,-1.2763,-1.2768,-1.2777,-1.278,-1.2782,-1.2785,-1.2802,-1.2806,-1.2763,-1.2763,-1.2763,0,0,-1.2497,-1.2516,-1.253,-1.2565,-1.2581,-1.2604,-1.2597,-1.2622,-1.2639,-1.2642,-1.2672,-1.2684,-1.2705,-1.2737,-1.2752,-1.2747,-1.2798,-1.2784,-1.2786,-1.2788,-1.2805,-1.2809,-1.2812,-1.2764,-1.2764,-1.2764,0,0,-1.2525,-1.2542,-1.2568,-1.2584,-1.2608,-1.2619,-1.2625,-1.2649,-1.2657,-1.2688,-1.269,-1.271,-1.2748,-1.2763,-1.2776,-1.2809,-1.2809,-1.2815,-1.2829,-1.2846,-1.2849,-1.2852,-1.2863,-1.2867,-1.2818,-1.2818,-1.2818,0,-1.2533,-1.2569,-1.258,-1.2605,-1.262,-1.2625,-1.265,-1.2664,-1.2694,-1.2704,-1.2699,-1.2746,-1.2761,-1.2796,-1.2804,-1.2814,-1.2821,-1.2813,-1.2848,-1.2851,-1.2854,-1.2865,-1.2869,-1.2819,-1.2819,-1.2818,-1.2818,0,-1.2577,-1.2602,-1.2619,-1.2649,-1.2666,-1.2691,-1.2705,-1.272,-1.2724,-1.2735,-1.2766,-1.2783,-1.2808,-1.2817,-1.2821,-1.2853,-1.2849,-1.2846,-1.2836,-1.2859,-1.2869,-1.2873,-1.2819,-1.2819,-1.2819,-1.2819,0,0,-1.2607,-1.2642,-1.2648,-1.2662,-1.2688,-1.2707,-1.2732,-1.2757,-1.277,-1.279,-1.281,-1.2842,-1.2839,-1.2853,-1.2859,-1.2874,-1.2899,-1.2869,-1.287,-1.2874,-1.2933,-1.2936,-1.294,-1.2899,-1.29,-1.2901,-1.2931,0,-1.2638,-1.2683,-1.2694,-1.2732,-1.2755,-1.2759,-1.278,-1.2798,-1.2809,-1.2829,-1.284,-1.2862,-1.2857,-1.2865,-1.288,-1.2893,-1.2911,-1.289,-1.2917,-1.2918,-1.2912,-1.2946,-1.2949,-1.2977,-1.2936,-1.2936,-1.2937,0,-1.268,-1.2702,-1.2743,-1.2766,-1.2776,-1.2795,-1.2819,-1.2838,-1.2858,-1.2865,-1.2881,-1.2885,-1.291,-1.2899,-1.2932,-1.2918,-1.2929,-1.2937,-1.2938,-1.2941,-1.2929,-1.2949,-1.2986,-1.299,-1.2943,-1.2943,-1.2942,0,-1.2697,-1.2737,-1.2766,-1.2777,-1.2806,-1.2819,-1.2831,-1.285,-1.2865,-1.2885,-1.2894,-1.2917,-1.2929,-1.2946,-1.2955,-1.2947,-1.2988,-1.2978,-1.2993,-1.2993,-1.3002,-1.3001,-1.3041,-1.3009,-1.3009,-1.3009,-1.3009,0,-1.273,-1.2755,-1.2774,-1.2792,-1.282,-1.2831,-1.2858,-1.287,-1.2887,-1.2906,-1.2911,-1.2929,-1.2941,-1.296,-1.2968,-1.2994,-1.3,-1.3005,-1.3007,-1.3005,-1.3004,-1.3012,-1.301,-1.301,-1.301,-1.301,-1.301,0,-1.2754,-1.2768,-1.2801,-1.2825,-1.2832,-1.2851,-1.2871,-1.2888,-1.2898,-1.2923,-1.2929,-1.2946,-1.2969,-1.298,-1.3009,-1.3014,-1.3043,-1.3044,-1.3037,-1.3038,-1.3052,-1.3051,-1.3098,-1.3105,-1.3069,-1.307,-1.307,0,-1.2775,-1.2794,-1.282,-1.2834,-1.2847,-1.2869,-1.2884,-1.2896,-1.2911,-1.2935,-1.2949,-1.2972,-1.2992,-1.3028,-1.3042,-1.3063,-1.3064,-1.3079,-1.3067,-1.3065,-1.3064,-1.3063,-1.3064,-1.3082,-1.3082,-1.3082,-1.3082,0,-1.2809,-1.2815,-1.2837,-1.2861,-1.2879,-1.2898,-1.2917,-1.2928,-1.2942,-1.2958,-1.2982,-1.2998,-1.3027,-1.305,-1.3072,-1.3083,-1.3085,-1.3086,-1.3091,-1.3089,-1.3084,-1.3086,-1.3043,-1.3085,-1.3085,-1.3085,-1.3084,-1.3084,-1.2832,-1.2849,-1.287,-1.2894,-1.291,-1.2927,-1.2944,-1.2957,-1.2978,-1.3003,-1.3008,-1.3034,-1.3053,-1.3083,-1.3095,-1.3114,-1.3111,-1.3118,-1.3119,-1.3121,-1.3121,-1.3081,-1.3118,-1.3118,-1.3118,-1.3118,-1.3118,0,-1.2866,-1.288,-1.2902,-1.2929,-1.2947,-1.2948,-1.2969,-1.2984,-1.3006,-1.3024,-1.3043,-1.3071,-1.3093,-1.3108,-1.313,-1.3143,-1.3144,-1.3148,-1.3147,-1.315,-1.3123,-1.3117,-1.3147,-1.3147,-1.3147,-1.3147,-1.3147,-1.3147,-1.2887,-1.2916,-1.2924,-1.296,-1.2973,-1.2999,-1.3011,-1.3026,-1.3041,-1.3071,-1.309,-1.31,-1.3117,-1.314,-1.316,-1.3164,-1.3172,-1.3176,-1.318,-1.3155,-1.3152,-1.3149,-1.3143,-1.3178,-1.3178,-1.3205,-1.3205,-1.3205]}]]